Flag for Germany Weather past 2 weeks in Hamburg, Hamburg, Germany

Now
79 °F

Sunny.


Feels Like: 79 °F
Forecast: 62 / 87 °F
Wind: 10 mph from East

Location: Hamburg-Fuhlsbuettel

Current Time: Jul 1, 2015 at 9:23:45 PM

Latest Report: Jul 1, 2015 at 8:50 PM


Visibility: 10 mi

Pressure: 30.15 "Hg

Humidity: 37%

Dew point: 50 °F

Location of HamburgLocation

Historic Weather in Hamburg — Graph

°F

Hamburg temperature yesterday

Maximum temperature yesterday: 73 °F (at 4:20 PM)
Minimum temperature yesterday: 50 °F (at 5:20 AM)
Average temperature yesterday: 64 °F

Past Weeks' High & Low Weather Summary

 TemperatureHumidityPressure
High82 °F (Jul 1, 3:20 PM)100% (Jun 17, 4:20 AM)30.27 "Hg (Jun 17, 4:20 AM)
Low39 °F (Jun 17, 2:50 AM)28% (Jul 1, 5:20 PM)29.62 "Hg (Jun 23, 2:50 AM)
Average60 °F76%30.01 "Hg
* Reported Jun 16 8:20 PM — Jul 1 8:20 PM, Hamburg, Weather by CustomWeather, © 2015

Note: Actual official high and low records may vary slightly from our data, if they occured in-between our weather recording intervals... More about our weather records

Advertising

Hamburg weather history for previous 24 hours

 ConditionsComfort  
Time TempWeatherWind HumidityBarometerVisibility
8:20 PM
Wed, Jul 1
79 °FPassing clouds.12 mph34%30.15 "HgN/A
7:50 PM81 °FPassing clouds.13 mph32%30.15 "HgN/A
7:20 PM81 °FPassing clouds.15 mph30%30.15 "HgN/A
6:50 PM82 °FPassing clouds.12 mph28%30.15 "HgN/A
6:20 PM81 °FPassing clouds.15 mph28%30.15 "HgN/A
5:50 PM82 °FSunny.15 mph28%30.15 "Hg10 mi
5:20 PM82 °FPassing clouds.12 mph28%30.18 "HgN/A
4:50 PM82 °FPassing clouds.13 mph30%30.18 "HgN/A
4:20 PM82 °FPassing clouds.13 mph30%30.18 "HgN/A
3:50 PM81 °FPassing clouds.15 mph30%30.18 "HgN/A
3:20 PM82 °FPassing clouds.12 mph30%30.18 "HgN/A
2:50 PM81 °FPassing clouds.12 mph37%30.18 "HgN/A
2:20 PM81 °FPassing clouds.12 mph37%30.18 "HgN/A
1:50 PM79 °FPassing clouds.10 mph39%30.18 "HgN/A
1:20 PM77 °FPassing clouds.10 mph42%30.21 "HgN/A
12:50 PM77 °FPassing clouds.10 mph44%30.21 "HgN/A
12:20 PM75 °FPassing clouds.12 mph44%30.21 "HgN/A
11:50 AM75 °FSunny.12 mph44%30.21 "Hg10 mi
11:20 AM75 °FPassing clouds.10 mph47%30.21 "HgN/A
10:50 AM73 °FPassing clouds.10 mph53%30.21 "HgN/A
10:20 AM72 °FPassing clouds.12 mph53%30.24 "HgN/A
9:50 AM70 °FPassing clouds.9 mph57%30.24 "HgN/A
9:20 AM68 °FPassing clouds.10 mph56%30.24 "HgN/A
8:50 AM66 °FSunny.13 mph64%30.24 "Hg10 mi
8:20 AM66 °FPassing clouds.9 mph64%30.24 "HgN/A
7:50 AM64 °FPassing clouds.12 mph64%30.24 "HgN/A
7:20 AM63 °FPassing clouds.8 mph68%30.24 "HgN/A
6:50 AM61 °FPassing clouds.7 mph72%30.24 "HgN/A
6:20 AM59 °FSunny.7 mph77%30.24 "Hg10 mi
5:50 AM57 °FClear.6 mph82%30.24 "Hg10 mi
5:20 AM55 °FClear.7 mph88%30.24 "Hg10 mi
4:50 AM54 °FClear.7 mph88%30.21 "Hg10 mi
4:20 AM54 °FClear.5 mph88%30.21 "Hg10 mi
3:50 AM54 °FClear.5 mph88%30.21 "Hg10 mi
3:20 AM54 °FClear.3 mph82%30.21 "Hg10 mi
2:50 AM59 °FClear.3 mph72%30.21 "Hg10 mi
2:20 AM59 °FClear.5 mph72%30.21 "Hg10 mi
1:50 AM59 °FPassing clouds.3 mph72%30.21 "HgN/A
1:20 AM61 °FClear.5 mph72%30.21 "Hg10 mi
12:50 AM59 °FClear.6 mph77%30.21 "Hg10 mi
12:20 AM61 °FClear.6 mph72%30.21 "Hg10 mi
11:50 PM
Tue, Jun 30
63 °FClear.3 mph68%30.21 "Hg10 mi
11:20 PM63 °FClear.6 mph68%30.21 "Hg10 mi
10:50 PM64 °FSunny.6 mph68%30.21 "Hg10 mi
10:20 PM66 °FSunny.9 mph64%30.21 "Hg10 mi
9:50 PM68 °FSunny.8 mph64%30.21 "Hg10 mi
9:20 PM66 °FPassing clouds.5 mph60%30.18 "HgN/A
Weather by CustomWeather, © 2015

See weather overviewHow to use our weather pages